Regional Weather Roundup
Issued by NWS

Home | Current Version | Previous Version | Text Only | Print | Product List | Glossary Off
Versions: 1 2 3 4 5 6 7 8 9 10 11 12 13 14 15 16 17 18 19 20 21 22 23 24 25 26 27 28

000
ASUS45 KCYS 211910
RWRWY

WYOMING REGIONAL WEATHER ROUNDUP
NATIONAL WEATHER SERVICE CHEYENNE WY
1200 PM MST TUE FEB 21 2017

NOTE:  "FAIR" INDICATES FEW OR NO CLOUDS BELOW 12,000 FEET
WITH NO SIGNIFICANT WEATHER AND/OR OBSTRUCTIONS TO VISIBILITY.

WYZ001-212000-
YELLOWSTONE NATIONAL PARK

CITY           SKY/WX    TMP DP  RH WIND       PRES   REMARKS
LK YELLOWSTONE   N/A     32  28  85 W15G32    29.88F WCI  22
W YELLOWSTONE  NOT AVBL

$$
WYZ002>013-054>058-071-098>099-212000-
NORTHERN WYOMING

CITY           SKY/WX    TMP DP  RH WIND       PRES   REMARKS
JACKSON        PTSUNNY   36  32  87 SW17G26   29.92S WCI  25
CODY           FAIR      48  32  53 SW12      29.81S
GREYBULL       FAIR      51  35  54 VRB5      29.78F
WORLAND        FAIR      58  35  42 SW25G31   29.78F
SHERIDAN       CLOUDY    61  33  35 W14       29.74F
BUFFALO        FAIR      60  29  30 SW30G40   29.75F
GILLETTE       FAIR      61  32  33 W17G29    29.75F
HULETT         FAIR      63  32  31 W14G20    29.75F
NEWCASTLE      FAIR      63  30  29 W24G38    29.83F

$$
WYZ014>020-022>026-101>103-212000-
CENTRAL WYOMING

CITY           SKY/WX    TMP DP  RH WIND       PRES   REMARKS
BIG PINEY      LGT RAIN  38  32  79 W14       29.99F WCI  30
PINEDALE       LGT RAIN  37  32  81 SW14G20   30.00F WCI  29
DUBOIS         SNOW      32  32 100 NW18G24   29.87F VSB 1/4 WCI  20
LANDER         CLOUDY    51  32  48 SW14G28   29.89F
RIVERTON       FAIR      52  34  50 SW15      29.88F
CASPER         FAIR      58  29  33 SW41G59   29.90F
DOUGLAS        FAIR      62  27  26 W33G44    29.90F

$$
WYZ021-027>030-104>119-212000-
SOUTHERN WYOMING

CITY           SKY/WX    TMP DP  RH WIND       PRES   REMARKS
EVANSTON       PTSUNNY   42  30  62 SW23      30.05S
KEMMERER         N/A     41  32  70 SW18G25   30.03F
FORT BRIDGER   FAIR      47  30  51 SW21G28   30.08S
ROCK SPRINGS   FAIR      50  30  46 SW17      30.04F
DIXON            N/A     51  32  47 SW22G36   30.16F
RAWLINS        CLOUDY    49  32  52 SW23G38   30.07F
SARATOGA       FAIR      50  30  46 SW28G40   30.12F
LARAMIE        FAIR      51  24  34 SW38G54   30.05S
CHEYENNE       FAIR      60  18  19 W33G49    30.04F
TORRINGTON     LGT RAIN  69  18  14 W37G49    29.88F
PINE BLUFFS    FAIR      66  18  15 MISG      29.96F

$$




USA.gov is the U.S. government's official web portal to all federal, state and local government web resources and services.